Location: Calgary
(51.0833°N, 114.0833°W)
Time: 18:51:55
(UTC-07:00)

N. Korean satellite - Visible Passes

Search period start: 21 February 2019 00:00
Search period end: 03 March 2019 00:00
Orbit: 456 x 510 km, 97.2° (Epoch: 21 February)

Date Brightness Start Highest point End Pass type
(mag) Time Alt. Az. Time Alt. Az. Time Alt. Az.
21 Feb 7.9 06:35:39 10° NNE 06:38:59 42° E 06:42:15 10° S visible
21 Feb 9.8 18:50:14 10° SW 18:53:00 20° W 18:55:45 10° NW visible
22 Feb 9.3 06:11:17 10° NE 06:14:05 23° E 06:16:52 10° SSE visible
23 Feb 10.1 05:47:32 10° ENE 05:49:07 13° E 05:50:42 10° ESE visible
24 Feb 6.7 06:54:43 10° NNE 06:58:12 74° ESE 07:01:37 10° S visible
24 Feb 10.3 19:10:41 10° WSW 19:12:22 13° W 19:14:03 10° WNW visible
25 Feb 8.3 06:30:08 10° NNE 06:33:22 36° E 06:36:34 10° SSE visible
25 Feb 9.6 18:44:30 10° SSW 18:47:24 22° W 18:50:16 10° NW visible
26 Feb 9.5 06:05:50 10° NE 06:08:27 20° E 06:11:04 10° SE visible
27 Feb 10.3 05:42:27 10° ENE 05:43:27 11° E 05:44:28 10° ESE visible
28 Feb 10.2 19:04:42 10° SW 19:06:43 14° W 19:08:42 10° NW visible
01 Mar 8.6 06:24:34 10° NNE 06:27:43 32° E 06:30:49 10° SSE visible
02 Mar 9.8 06:00:23 10° NE 06:02:47 18° E 06:05:10 10° SE visible
